Regional Weather Roundup
Issued by NWS Goodland, KS

Home | Current Version | Previous Version | Text Only | Print | Product List | Glossary Off
Versions: 1 2 3 4 5 6 7 8 9 10 11 12 13 14 15 16 17 18 19 20 21 22 23 24 25 26 27 28 29 30 31 32 33 34 35 36 37 38 39 40 41 42 43 44 45 46 47 48 49 50

000
ASUS43 KGLD 232059
RWRGLD

GOODLAND FORECAST AREA HOURLY WEATHER ROUNDUP
NATIONAL WEATHER SERVICE GOODLAND KS
300 PM MDT MON OCT 23 2017

...OFFICIAL OBSERVATIONS...

CITY           SKY/WX    TMP DP  RH WIND       PRES   REMARKS
GOODLAND KS    SUNNY     59  20  22 N23G40    30.31S
HILL CITY KS   MOSUNNY   64  17  16 NW28G43   30.24S
IMPERIAL NEB   SUNNY     61  15  16 N35G47    30.30S
MCCOOK NEB     SUNNY     65  17  15 NW32G46   30.24R
AKRON CO       PTSUNNY   53  17  24 N23G29    30.38F
BURLINGTON CO  SUNNY     57  21  24 N21G39    30.35S
LIMON CO       SUNNY     51  21  30 N21G31    30.41S
$$

...UNOFFICIAL OBSERVATIONS...

CITY           SKY/WX    TMP DP  RH WIND       PRES   REMARKS
LENORA KS        N/A     61  32  33 N20G28      N/A
NORTON KS      SUNNY     64   7  10 NW26G33   30.22R
SHARON SPRINGS   N/A     60  23  24 NW20G29     N/A
TRENTON NEB      N/A     61  32  33 N20G28      N/A
KIT CARSON CO    N/A     56  24  28 MISG        N/A
YUMA CO        FAIR      55  19  24 NW28G35   30.35F
$$




USA.gov is the U.S. government's official web portal to all federal, state and local government web resources and services.